This is the latest recevied weather packets stored in our database for station/object DL9BGG-13. If no packets are shown the sender has not sent any weather packets the latest 1 day(s).
| Time | Temp. | Humidity | Pressure | Rain* | Wind** | Luminosity | Snow |
|---|---|---|---|---|---|---|---|
| 1778012458 | 10° C | 84% | 1056.2 hPa | 0 mm | 5.36 m/s, 22° | - | - |
| 1778012392 | 10° C | 84% | 1056.2 hPa | 0 mm | 6.71 m/s, 67° | - | - |
| 1778012320 | 10° C | 84% | 1056.2 hPa | 0 mm | 4.47 m/s, 22° | - | - |
| 1778012252 | 10° C | 84% | 1056.2 hPa | 0 mm | 1.79 m/s, 45° | - | - |
| 1778012172 | 10° C | 84% | 1056.3 hPa | 0 mm | 0.89 m/s, 67° | - | - |
| 1778012106 | 10° C | 84% | 1056.3 hPa | 0 mm | 1.34 m/s, 0° | - | - |
| 1778012032 | 10° C | 85% | 1056.2 hPa | 0 mm | 1.79 m/s, 22° | - | - |
| 1778011887 | 10° C | 85% | 1056.2 hPa | 0 mm | 2.24 m/s, 22° | - | - |
| 1778011814 | 10° C | 84% | 1056.2 hPa | 0 mm | 4.47 m/s, 45° | - | - |
| 1778011742 | 10° C | 84% | 1056.2 hPa | 0 mm | 2.24 m/s, 22° | - | - |
| 1778011674 | 10° C | 84% | 1056.2 hPa | 0 mm | 1.79 m/s, 22° | - | - |
| 1778011600 | 10° C | 84% | 1056.2 hPa | 0 mm | 1.34 m/s, 22° | - | - |
| 1778011534 | 10° C | 84% | 1056.2 hPa | 0 mm | 3.13 m/s, 67° | - | - |
| 1778011468 | 10° C | 84% | 1056.2 hPa | 0 mm | 4.92 m/s, 112° | - | - |
| 1778011402 | 10° C | 84% | 1056.2 hPa | 0 mm | 2.24 m/s, 22° | - | - |
| 1778011336 | 10° C | 83% | 1056.2 hPa | 0 mm | 3.58 m/s, 0° | - | - |
| 1778011270 | 10° C | 83% | 1056.1 hPa | 0 mm | 4.02 m/s, 67° | - | - |
| 1778011203 | 10° C | 83% | 1056.2 hPa | 0 mm | 2.68 m/s, 45° | - | - |
| 1778011129 | 10° C | 83% | 1056.2 hPa | 0 mm | 2.68 m/s, 22° | - | - |
| 1778011055 | 10° C | 83% | 1056.1 hPa | 0 mm | 0.89 m/s, 45° | - | - |
| 1778010981 | 10° C | 83% | 1056.2 hPa | 0 mm | 3.58 m/s, 45° | - | - |
| 1778010906 | 10° C | 83% | 1056.2 hPa | 0 mm | 3.58 m/s, 0° | - | - |
| 1778010827 | 10° C | 83% | 1056.2 hPa | 0 mm | 1.79 m/s, 67° | - | - |
| 1778010758 | 10° C | 83% | 1056.3 hPa | 0 mm | 1.79 m/s, 0° | - | - |
| 1778010678 | 10° C | 83% | 1056.3 hPa | 0 mm | 2.68 m/s, 45° | - | - |
* Rain latest hour (hover to see other rain measurements)
** Current wind speed in m/s (hover to see current wind gust speed)